TimeCEST,TemperatureF,Dew PointF,Humidity,Sea Level PressureIn,VisibilityMPH,Wind Direction,Wind SpeedMPH,Gust SpeedMPH,PrecipitationIn,Events,Conditions,WindDirDegrees,DateUTC
12:00 AM,69.8,68.0,94,30.15,6.2,Variable,2.3,-,N/A,,Partly Cloudy,0,2013-09-09 22:00:00
12:30 AM,69.8,68.0,94,30.15,6.2,Calm,Calm,-,N/A,,Partly Cloudy,0,2013-09-09 22:30:00
1:00 AM,69.8,68.0,94,30.15,6.2,ENE,1.2,-,N/A,,Partly Cloudy,60,2013-09-09 23:00:00
1:30 AM,69.8,68.0,94,30.15,6.2,Calm,Calm,-,N/A,,Partly Cloudy,0,2013-09-09 23:30:00
2:00 AM,69.8,68.0,94,30.15,6.2,NNW,1.2,-,N/A,,Scattered Clouds,330,2013-09-10 00:00:00
2:30 AM,68.0,66.2,94,30.15,6.2,ENE,2.3,-,N/A,,Partly Cloudy,70,2013-09-10 00:30:00
3:00 AM,68.0,66.2,94,30.15,6.2,Calm,Calm,-,N/A,,Partly Cloudy,0,2013-09-10 01:00:00
3:30 AM,68.0,66.2,94,30.15,6.2,Calm,Calm,-,N/A,,Partly Cloudy,0,2013-09-10 01:30:00
4:00 AM,68.0,66.2,94,30.15,6.2,NNW,3.5,-,N/A,,Partly Cloudy,330,2013-09-10 02:00:00
4:30 AM,68.0,66.2,94,30.12,6.2,Variable,2.3,-,N/A,,Partly Cloudy,0,2013-09-10 02:30:00
5:00 AM,68.0,66.2,94,30.12,6.2,Calm,Calm,-,N/A,,Partly Cloudy,0,2013-09-10 03:00:00
5:30 AM,68.0,66.2,94,30.09,6.2,North,1.2,-,N/A,,Partly Cloudy,350,2013-09-10 03:30:00
6:00 AM,66.2,66.2,100,30.09,6.2,ENE,1.2,-,N/A,,Partly Cloudy,70,2013-09-10 04:00:00
6:30 AM,68.0,66.2,94,30.09,6.2,Calm,Calm,-,N/A,,Partly Cloudy,0,2013-09-10 04:30:00
7:00 AM,68.0,66.2,94,30.09,6.2,ESE,1.2,-,N/A,,Partly Cloudy,110,2013-09-10 05:00:00
7:30 AM,68.0,66.2,94,30.09,6.2,Variable,1.2,-,N/A,,Partly Cloudy,0,2013-09-10 05:30:00
8:00 AM,67,66,94,30.10,19,North,2.3,,,,Scattered Clouds,350,2013-09-10 06:00:00
8:00 AM,68.0,66.2,94,30.09,6.2,Variable,1.2,-,N/A,,Partly Cloudy,0,2013-09-10 06:00:00
8:30 AM,68.0,66.2,94,30.09,6.2,Variable,2.3,-,N/A,,Partly Cloudy,0,2013-09-10 06:30:00
9:00 AM,68.0,66.2,94,30.09,6.2,Calm,Calm,-,N/A,,Partly Cloudy,0,2013-09-10 07:00:00
9:30 AM,69.8,68.0,94,30.09,6.2,Variable,1.2,-,N/A,,Partly Cloudy,0,2013-09-10 07:30:00
10:00 AM,71.6,69.8,94,30.09,6.2,Variable,1.2,-,N/A,,Partly Cloudy,0,2013-09-10 08:00:00
10:30 AM,73.4,68.0,83,30.09,6.2,Variable,2.3,-,N/A,,Partly Cloudy,0,2013-09-10 08:30:00
11:00 AM,75.2,68.0,78,30.12,6.2,Variable,1.2,-,N/A,,Partly Cloudy,0,2013-09-10 09:00:00
11:30 AM,77.0,68.0,74,30.12,6.2,North,1.2,-,N/A,,Partly Cloudy,350,2013-09-10 09:30:00
12:00 PM,80.6,68.0,65,30.12,6.2,North,2.3,-,N/A,,Partly Cloudy,350,2013-09-10 10:00:00
12:30 PM,80.6,66.2,61,30.09,6.2,West,3.5,-,N/A,,Partly Cloudy,260,2013-09-10 10:30:00
1:00 PM,80.6,64.4,58,30.09,6.2,WSW,4.6,-,N/A,,Partly Cloudy,240,2013-09-10 11:00:00
1:30 PM,82.4,64.4,54,30.09,6.2,SW,9.2,-,N/A,,Partly Cloudy,230,2013-09-10 11:30:00
2:00 PM,81,65,49,30.10,19,SW,12.7,,,,Scattered Clouds,230,2013-09-10 12:00:00
2:00 PM,80.6,68.0,65,30.09,6.2,SW,11.5,-,N/A,,Partly Cloudy,230,2013-09-10 12:00:00
2:30 PM,80.6,64.4,58,30.09,6.2,SW,11.5,-,N/A,,Partly Cloudy,230,2013-09-10 12:30:00
3:00 PM,82.4,66.2,58,30.06,6.2,SW,11.5,-,N/A,,Partly Cloudy,230,2013-09-10 13:00:00
3:30 PM,80.6,64.4,58,30.06,6.2,WSW,15.0,-,N/A,,Partly Cloudy,240,2013-09-10 13:30:00
4:00 PM,82.4,64.4,54,30.06,6.2,SW,13.8,-,N/A,,Partly Cloudy,230,2013-09-10 14:00:00
4:30 PM,82.4,62.6,51,30.06,6.2,SW,12.7,-,N/A,,Partly Cloudy,230,2013-09-10 14:30:00
5:00 PM,82.4,64.4,54,30.06,6.2,SW,13.8,-,N/A,,Partly Cloudy,220,2013-09-10 15:00:00
5:30 PM,82.4,62.6,51,30.04,6.2,SW,15.0,-,N/A,,Partly Cloudy,230,2013-09-10 15:30:00
6:00 PM,80.6,60.8,51,30.04,6.2,SW,16.1,-,N/A,,Partly Cloudy,230,2013-09-10 16:00:00
6:30 PM,80.6,62.6,54,30.04,6.2,WSW,15.0,-,N/A,,Partly Cloudy,240,2013-09-10 16:30:00
7:00 PM,78.8,64.4,61,30.04,6.2,WSW,13.8,-,N/A,,Partly Cloudy,250,2013-09-10 17:00:00
7:30 PM,78.8,62.6,57,30.04,6.2,WSW,12.7,-,N/A,,Partly Cloudy,250,2013-09-10 17:30:00
8:00 PM,77,64,55,30.06,19,WSW,6.9,,,,Scattered Clouds,250,2013-09-10 18:00:00
8:00 PM,77.0,64.4,65,30.04,6.2,WSW,8.1,-,N/A,,Partly Cloudy,240,2013-09-10 18:00:00
8:30 PM,77.0,66.2,69,30.04,6.2,WSW,8.1,-,N/A,,Partly Cloudy,240,2013-09-10 18:30:00
9:00 PM,77.0,66.2,69,30.06,6.2,WSW,6.9,-,N/A,,Partly Cloudy,250,2013-09-10 19:00:00
9:30 PM,75.2,66.2,73,30.06,6.2,Variable,2.3,-,N/A,,Partly Cloudy,0,2013-09-10 19:30:00
10:00 PM,75.2,66.2,73,30.06,6.2,Calm,Calm,-,N/A,,Partly Cloudy,0,2013-09-10 20:00:00
10:30 PM,75.2,66.2,73,30.06,6.2,Calm,Calm,-,N/A,,Partly Cloudy,0,2013-09-10 20:30:00
11:00 PM,73.4,66.2,78,30.06,6.2,East,1.2,-,N/A,,Partly Cloudy,80,2013-09-10 21:00:00
11:30 PM,71.6,66.2,83,30.06,6.2,South,1.2,-,N/A,,Partly Cloudy,170,2013-09-10 21:30:00